GW0795 Weather Reports


time (UTC)temp
F
wind
direction
speed
knots
gust
knots
rain 1hr
in
rain 24hr
in
rain mn
in
humidity
%
barometer
mb
20260905233026 69 57 0.0 2.6 0.00 0.00 0.00 52 1016.6
20260905232519 68 173 0.9 3.5 0.00 0.00 0.00 52 1016.6
20260905232013 68 262 0.9 3.5 0.00 0.00 0.00 53 1016.6
20260905231504 68 37 1.7 4.3 0.00 0.00 0.00 55 1016.6
20260905231004 68 278 1.7 4.3 0.00 0.00 0.00 55 1016.6
20260905230503 68 288 0.9 3.5 0.00 0.00 0.00 59 1016.6
20260905230005 67 63 0.9 5.2 0.00 0.00 0.00 61 1016.6
20260905225504 67 120 1.7 5.2 0.00 0.00 0.00 62 1016.7
20260905225006 67 167 0.9 2.6 0.00 0.00 0.00 60 1016.7
20260905224513 67 313 0.0 2.6 0.00 0.00 0.00 59 1016.7
20260905224009 68 306 0.9 3.5 0.00 0.00 0.00 60 1016.9
20260905223507 67 350 1.7 3.5 0.00 0.00 0.00 55 1016.9
20260905223017 67 19 0.0 3.5 0.00 0.00 0.00 52 1017.0
20260905222512 66 122 0.9 6.1 0.00 0.00 0.00 56 1016.9
20260905222014 66 82 2.6 6.1 0.00 0.00 0.00 56 1017.0
20260905221523 67 70 1.7 3.5 0.00 0.00 0.00 56 1017.1
20260905221012 66 183 0.9 2.6 0.00 0.00 0.00 57 1017.1
20260905220504 65 302 0.9 3.5 0.00 0.00 0.00 58 1017.3
20260905220007 65 196 1.7 3.5 0.00 0.00 0.00 62 1017.4
20260905215506 65 144 0.9 5.2 0.00 0.00 0.00 64 1017.4
20260905215003 63 115 1.7 5.2 0.00 0.00 0.00 69 1017.4
20260905214508 63 153 1.7 3.5 0.00 0.00 0.00 70 1017.4
20260905214006 63 74 1.7 3.5 0.00 0.00 0.00 70 1017.5
20260905213510 63 113 1.7 3.5 0.00 0.00 0.00 69 1017.5
20260905213018 63 178 0.0 3.5 0.00 0.00 0.00 69 1017.5
20260905212510 63 161 0.9 3.5 0.00 0.00 0.00 70 1017.6
20260905212014 63 184 0.9 3.5 0.00 0.00 0.00 71 1017.6
20260905211518 63 90 1.7 3.5 0.00 0.00 0.00 70 1017.6
20260905211014 63 89 1.7 2.6 0.00 0.00 0.00 69 1017.7
20260905210515 63 184 0.9 3.5 0.00 0.00 0.00 69 1017.7
20260905210031 62 168 1.7 3.5 0.00 0.00 0.00 69 1017.7
20260905205514 63 152 1.7 2.6 0.00 0.00 0.00 68 1017.6
20260905205006 63 114 0.0 2.6 0.00 0.00 0.00 71 1017.7
20260905204510 63 148 1.7 3.5 0.00 0.00 0.00 67 1017.8
20260905204007 62 208 0.9 3.5 0.00 0.00 0.00 69 1017.7
20260905203505 62 213 0.0 2.6 0.00 0.00 0.00 68 1017.8
20260905203014 62 135 0.0 2.6 0.00 0.00 0.00 68 1017.8
20260905202506 62 69 0.9 2.6 0.00 0.00 0.00 68 1017.9
20260905202014 62 151 0.0 1.7 0.00 0.00 0.00 68 1017.9
20260905201517 62 181 0.9 1.7 0.00 0.00 0.00 68 1017.9
20260905201011 62 192 0.0 3.5 0.00 0.00 0.00 71 1017.9
20260905200514 62 171 0.0 3.5 0.00 0.00 0.00 70 1017.9
20260905200035 62 188 0.9 2.6 0.00 0.00 0.00 70 1017.9
20260905195513 62 135 1.7 2.6 0.00 0.00 0.00 69 1017.9
20260905195019 63 132 0.0 1.7 0.00 0.00 0.00 69 1018.0
20260905194529 62 207 0.0 4.3 0.00 0.00 0.00 71 1018.0
20260905194017 62 125 0.0 4.3 0.00 0.00 0.00 71 1018.1
20260905193506 61 155 2.6 4.3 0.00 0.00 0.00 70 1018.1
20260905193013 63 157 0.9 3.5 0.00 0.00 0.00 70 1018.1
20260905192510 63 154 1.7 6.1 0.00 0.00 0.00 68 1018.1
20260905192007 63 230 1.7 6.1 0.00 0.00 0.00 71 1018.1
20260905191514 63 235 1.7 3.5 0.00 0.00 0.00 68 1018.2
20260905191013 63 159 0.9 6.1 0.00 0.00 0.00 71 1018.2
20260905190512 62 160 3.5 6.1 0.00 0.00 0.00 70 1018.3
20260905190023 63 153 1.7 3.5 0.00 0.00 0.00 69 1018.2
20260905185511 63 181 0.9 3.5 0.00 0.00 0.00 70 1018.3
20260905185014 62 148 1.7 3.5 0.00 0.00 0.00 70 1018.4
20260905184534 60 123 0.9 3.5 0.00 0.00 0.00 72 1018.4
20260905184017 60 138 1.7 3.5 0.00 0.00 0.00 73 1018.5
20260905183517 61 192 0.9 4.3 0.00 0.00 0.00 73 1018.4
20260905183030 61 196 1.7 4.3 0.00 0.00 0.00 73 1018.4
20260905182514 61 201 0.9 2.6 0.00 0.00 0.00 73 1018.5
20260905182006 61 202 0.9 2.6 0.00 0.00 0.00 74 1018.6
20260905181513 60 132 0.0 4.3 0.00 0.00 0.00 73 1018.6
20260905181010 59 129 1.7 4.3 0.00 0.00 0.00 74 1018.7
20260905180513 60 152 0.9 4.3 0.00 0.00 0.00 74 1018.7
20260905180016 59 161 1.7 3.5 0.00 0.00 0.00 75 1018.7
20260905175512 60 148 0.9 2.6 0.00 0.00 0.00 74 1018.7
20260905175011 60 148 0.0 2.6 0.00 0.00 0.00 76 1018.7
20260905174534 60 86 0.0 2.6 0.00 0.00 0.00 73 1018.6
20260905174013 60 186 0.9 1.7 0.00 0.00 0.00 74 1018.5
20260905173515 60 82 0.9 2.6 0.00 0.00 0.00 72 1018.4
20260905173027 61 96 0.9 2.6 0.00 0.00 0.00 72 1018.4
20260905172517 60 195 0.9 2.6 0.00 0.00 0.00 73 1018.3
20260905172016 59 49 0.9 3.5 0.00 0.00 0.00 76 1018.3
20260905171529 59 136 0.0 3.5 0.00 0.00 0.00 77 1018.3
20260905171022 59 145 0.9 2.6 0.00 0.00 0.00 77 1018.3
20260905170510 60 284 0.9 1.7 0.00 0.00 0.00 75 1018.2
20260905170016 59 5 0.0 2.6 0.00 0.00 0.00 74 1018.2
20260905165508 59 360 0.9 2.6 0.00 0.00 0.00 74 1018.2
20260905165011 59 5 0.9 1.7 0.00 0.00 0.00 74 1018.2
20260905164522 58 94 0.9 2.6 0.00 0.00 0.00 76 1018.2
20260905164014 58 120 0.9 2.6 0.00 0.00 0.00 77 1018.1
20260905163515 58 134 0.0 1.7 0.00 0.00 0.00 78 1018.1
20260905163027 57 167 0.0 1.7 0.00 0.00 0.00 78 1018.2
20260905162514 57 158 0.0 1.7 0.00 0.00 0.00 79 1018.1
20260905162017 57 130 0.0 0.0 0.00 0.00 0.00 79 1018.1
20260905161530 57 136 0.0 0.0 0.00 0.00 0.00 79 1018.1
20260905161018 56 135 0.0 0.9 0.00 0.00 0.00 80 1018.1
20260905160520 56 115 0.0 0.9 0.00 0.00 0.00 80 1018.1
20260905160046 56 115 0.9 1.7 0.00 0.00 0.00 80 1018.1
20260905155518 56 22 0.9 1.7 0.00 0.00 0.00 81 1018.1
20260905155011 56 142 0.0 0.0 0.00 0.00 0.00 81 1018.1
20260905154518 55 142 0.0 0.0 0.00 0.00 0.00 82 1018.2
20260905154014 55 142 0.0 1.7 0.00 0.00 0.00 81 1018.1
20260905153514 55 142 0.0 1.7 0.00 0.00 0.00 82 1018.2
20260905153001 55 144 0.0 1.7 0.00 0.00 0.00 83 1018.2
20260905152502 55 146 0.9 2.6 0.00 0.00 0.00 83 1018.2
20260905152002 55 131 0.9 2.6 0.00 0.00 0.00 84 1018.2
20260905151505 55 193 0.9 1.7 0.00 0.00 0.00 84 1018.2
20260905151008 55 136 0.0 0.0 0.00 0.00 0.00 82 1018.2
20260905150507 55 113 0.0 0.0 0.00 0.00 0.00 83 1018.1
20260905150021 54 97 0.0 1.7 0.00 0.00 0.00 83 1018.1
20260905145510 54 107 0.0 2.6 0.00 0.00 0.00 84 1018.1
20260905145012 53 95 0.0 2.6 0.00 0.00 0.00 85 1018.1
20260905144537 53 86 1.7 2.6 0.00 0.00 0.00 85 1018.0
20260905144016 53 102 0.0 1.7 0.00 0.00 0.00 85 1017.9
20260905143511 53 103 0.0 0.0 0.00 0.00 0.00 86 1017.9
20260905143026 52 103 0.0 0.0 0.00 0.00 0.00 87 1017.9
20260905142513 52 103 0.0 0.0 0.00 0.00 0.00 87 1017.8
20260905142017 52 102 0.0 0.0 0.00 0.00 0.00 87 1017.7
20260905141505 52 102 0.0 0.0 0.00 0.00 0.00 87 1017.7
20260905141007 52 103 0.0 0.0 0.00 0.00 0.00 87 1017.7
20260905140505 52 102 0.0 0.0 0.00 0.00 0.00 87 1017.7
20260905140011 52 103 0.0 0.0 0.00 0.00 0.00 87 1017.5
20260905135507 52 102 0.0 0.0 0.00 0.00 0.00 87 1017.5
20260905135009 52 102 0.0 0.0 0.00 0.00 0.00 87 1017.5
20260905134518 52 102 0.0 0.0 0.00 0.00 0.00 87 1017.4
20260905134008 52 103 0.0 0.0 0.00 0.00 0.00 87 1017.4
20260905133512 52 102 0.0 0.0 0.00 0.00 0.00 87 1017.4
20260905133031 52 102 0.0 0.0 0.00 0.00 0.00 87 1017.5
20260905132517 51 103 0.0 0.0 0.00 0.00 0.00 88 1017.4
20260905132017 51 103 0.0 0.0 0.00 0.00 0.00 88 1017.4
20260905131542 51 102 0.0 0.0 0.00 0.00 0.00 88 1017.5
20260905131016 51 102 0.0 0.0 0.00 0.00 0.00 88 1017.5
20260905130515 51 102 0.0 0.0 0.00 0.00 0.00 88 1017.5
20260905130009 51 102 0.0 0.0 0.00 0.00 0.00 88 1017.5
20260905125506 51 102 0.0 0.0 0.00 0.00 0.00 88 1017.4
20260905125007 51 102 0.0 0.0 0.00 0.00 0.00 88 1017.5
20260905124515 51 102 0.0 0.0 0.00 0.00 0.00 88 1017.5
20260905124009 51 102 0.0 0.0 0.00 0.00 0.00 88 1017.4
20260905123510 51 102 0.0 0.0 0.00 0.00 0.00 88 1017.4
20260905123018 51 103 0.0 0.0 0.00 0.00 0.00 88 1017.4
20260905122512 51 102 0.0 0.0 0.00 0.00 0.00 88 1017.4
20260905122014 51 102 0.0 0.0 0.00 0.00 0.00 88 1017.3
20260905121523 51 103 0.0 0.0 0.00 0.00 0.00 89 1017.4
20260905121014 50 102 0.0 0.0 0.00 0.00 0.00 89 1017.4
20260905120519 50 103 0.0 0.0 0.00 0.00 0.00 89 1017.4
20260905120029 50 102 0.0 0.0 0.00 0.00 0.00 89 1017.4
20260905115514 50 102 0.0 0.0 0.00 0.00 0.00 89 1017.4
20260905115018 50 102 0.0 0.0 0.00 0.00 0.00 89 1017.4
20260905114512 50 102 0.0 0.0 0.00 0.00 0.00 89 1017.4
20260905114006 50 102 0.0 0.0 0.00 0.00 0.00 88 1017.3
20260905113509 50 102 0.0 0.0 0.00 0.00 0.00 89 1017.3
20260905113017 50 102 0.0 0.0 0.00 0.00 0.00 89 1017.3
20260905112510 50 103 0.0 0.0 0.00 0.00 0.00 88 1017.3
20260905112013 50 103 0.0 0.0 0.00 0.00 0.00 88 1017.3
20260905111523 50 103 0.0 0.0 0.00 0.00 0.00 88 1017.3
20260905111015 51 103 0.0 0.0 0.00 0.00 0.00 88 1017.2
20260905110515 50 103 0.0 0.0 0.00 0.00 0.00 89 1017.2
20260905110027 51 102 0.0 0.0 0.00 0.00 0.00 88 1017.2
20260905105514 51 102 0.0 0.0 0.00 0.00 0.00 88 1017.2
20260905105015 51 102 0.0 0.0 0.00 0.00 0.00 88 1017.2
20260905104529 51 103 0.0 0.0 0.00 0.00 0.00 88 1017.1
20260905104016 51 102 0.0 0.0 0.00 0.00 0.00 88 1017.1
20260905103519 51 103 0.0 0.0 0.00 0.00 0.00 88 1017.0
20260905103035 51 103 0.0 0.0 0.00 0.00 0.00 88 1017.0
20260905102509 51 103 0.0 0.0 0.00 0.00 0.00 88 1016.9
20260905102010 52 102 0.0 0.0 0.00 0.00 0.00 88 1016.9
20260905101518 52 102 0.0 0.0 0.00 0.00 0.00 88 1017.0
20260905101011 52 102 0.0 0.0 0.00 0.00 0.00 88 1016.9
20260905100511 52 102 0.0 0.0 0.00 0.00 0.00 89 1016.9
20260905100024 51 102 0.0 0.0 0.00 0.00 0.00 89 1016.8
20260905095516 51 102 0.0 0.0 0.00 0.00 0.00 89 1016.8
20260905095016 51 102 0.0 0.0 0.00 0.00 0.00 89 1016.8
20260905094529 52 103 0.0 0.0 0.00 0.00 0.00 88 1016.8
20260905094015 52 102 0.0 0.0 0.00 0.00 0.00 88 1016.8
20260905093516 52 102 0.0 0.0 0.00 0.00 0.00 88 1016.9
20260905093033 52 102 0.0 0.0 0.00 0.00 0.00 88 1016.9
20260905092516 52 102 0.0 0.0 0.00 0.00 0.00 88 1016.9
20260905092022 52 102 0.0 0.0 0.00 0.00 0.00 88 1016.9
20260905091535 52 103 0.0 0.0 0.00 0.00 0.00 88 1016.9
20260905091011 52 102 0.0 0.0 0.00 0.00 0.00 88 1016.8
20260905090510 52 102 0.0 0.0 0.00 0.00 0.00 88 1016.8
20260905090014 52 102 0.0 0.0 0.00 0.00 0.00 88 1016.8
20260905085503 52 103 0.0 0.0 0.00 0.00 0.00 88 1016.8
20260905085002 52 102 0.0 0.0 0.00 0.00 0.00 88 1016.8
20260905084503 52 102 0.0 0.0 0.00 0.00 0.00 87 1016.8
20260905084005 53 102 0.0 0.0 0.00 0.00 0.00 88 1016.7
20260905083505 53 103 0.0 0.0 0.00 0.00 0.00 87 1016.7
20260905083004 53 103 0.0 0.0 0.00 0.00 0.00 87 1016.7
20260905082506 53 102 0.0 0.0 0.00 0.00 0.00 87 1016.6
20260905082007 53 103 0.0 0.9 0.00 0.00 0.00 87 1016.5
20260905081512 53 102 0.0 1.7 0.00 0.00 0.00 86 1016.5
20260905081010 53 113 0.0 1.7 0.00 0.00 0.00 86 1016.6
20260905080510 53 113 0.0 0.9 0.00 0.00 0.00 87 1016.6
20260905080021 53 98 0.0 0.0 0.00 0.00 0.00 87 1016.6
20260905075510 53 98 0.0 0.0 0.00 0.00 0.00 86 1016.6
20260905075008 53 98 0.0 0.0 0.00 0.00 0.00 86 1016.6
20260905074517 53 98 0.0 0.9 0.00 0.00 0.00 86 1016.6
20260905074005 53 98 0.0 0.9 0.00 0.01 0.00 86 1016.6
20260905073501 53 98 0.0 0.0 0.00 0.01 0.00 86 1016.6
20260905073004 54 98 0.0 0.0 0.00 0.01 0.00 85 1016.5
20260905072508 54 98 0.0 0.0 0.00 0.01 0.00 85 1016.5
20260905072004 54 98 0.0 0.0 0.00 0.01 0.00 85 1016.5
20260905071511 54 98 0.0 0.0 0.00 0.01 0.00 85 1016.5
20260905071007 54 98 0.0 0.0 0.00 0.01 0.00 85 1016.3
20260905070508 54 98 0.0 0.0 0.00 0.01 0.00 84 1016.3
20260905070017 54 98 0.0 0.0 0.00 0.01 0.00 84 1016.3
20260905065510 54 98 0.0 0.0 0.00 0.02 0.01 84 1016.3
20260905065015 55 98 0.0 0.0 0.00 0.02 0.01 83 1016.2
20260905064520 55 98 0.0 0.0 0.00 0.02 0.01 83 1016.2
20260905064010 55 98 0.0 0.0 0.00 0.02 0.01 83 1016.2
20260905063509 55 98 0.0 0.0 0.00 0.02 0.01 83 1016.2
20260905063020 55 98 0.0 0.0 0.00 0.02 0.01 82 1016.1
20260905062514 56 98 0.0 0.0 0.00 0.02 0.01 81 1016.0
20260905062004 56 98 0.0 0.0 0.00 0.02 0.01 80 1016.0
20260905061508 57 98 0.0 1.7 0.00 0.02 0.01 79 1015.9
20260905061004 57 98 0.0 1.7 0.00 0.02 0.01 79 1015.9
20260905060508 57 98 0.0 1.7 0.00 0.02 0.01 79 1015.9
20260905060016 57 98 0.0 2.6 0.00 0.02 0.01 78 1015.9
20260905055510 58 100 0.0 2.6 0.00 0.02 0.01 78 1015.9
20260905055010 57 74 0.0 2.6 0.00 0.02 0.01 78 1015.8
20260905054519 57 96 0.0 0.0 0.00 0.02 0.01 79 1015.7
20260905054010 58 96 0.0 0.0 0.00 0.02 0.01 78 1015.7
20260905053513 58 96 0.0 0.0 0.00 0.02 0.01 78 1015.7
20260905053033 58 96 0.0 0.0 0.00 0.02 0.01 78 1015.8
20260905052513 58 96 0.0 0.0 0.00 0.02 0.01 77 1015.8
20260905052014 58 96 0.0 0.0 0.00 0.02 0.01 77 1015.8
20260905051523 58 96 0.0 0.0 0.00 0.02 0.01 77 1015.9
20260905051011 58 96 0.0 0.0 0.00 0.02 0.01 77 1015.9
20260905050507 58 96 0.0 0.0 0.00 0.02 0.01 76 1015.9
20260905050013 58 96 0.0 0.0 0.00 0.02 0.01 76 1015.8
20260905045508 58 96 0.0 0.0 0.00 0.02 0.01 76 1015.8
20260905045009 58 96 0.0 0.0 0.00 0.02 0.01 76 1015.8
20260905044520 58 96 0.0 0.0 0.00 0.02 0.01 76 1015.9
20260905044011 58 96 0.0 0.0 0.00 0.02 0.01 76 1015.9
20260905043516 59 96 0.0 0.0 0.00 0.02 0.01 75 1015.9
20260905043026 59 96 0.0 0.0 0.00 0.02 0.01 75 1015.9
20260905042513 59 96 0.0 0.0 0.00 0.02 0.01 74 1015.9
20260905042014 59 96 0.0 0.0 0.00 0.02 0.01 74 1015.9
20260905041525 60 96 0.0 0.0 0.00 0.02 0.01 73 1015.8
20260905041015 59 96 0.0 0.0 0.00 0.02 0.01 73 1015.8
20260905040514 59 96 0.0 0.0 0.00 0.02 0.01 73 1015.8
20260905040028 60 96 0.0 0.0 0.00 0.02 0.01 72 1015.8
20260905035515 60 96 0.0 0.0 0.00 0.02 0.01 71 1015.8
20260905035007 60 96 0.0 0.0 0.00 0.02 0.01 71 1015.8
20260905034514 60 96 0.0 0.0 0.00 0.02 0.01 70 1015.8
20260905034013 60 100 0.0 0.0 0.00 0.02 0.01 70 1015.7
20260905033508 60 100 0.0 0.0 0.00 0.02 0.01 70 1015.7
20260905033030 60 100 0.0 0.0 0.00 0.02 0.01 69 1015.7
20260905032512 61 99 0.0 0.0 0.00 0.02 0.01 69 1015.6
20260905032013 61 100 0.0 0.0 0.00 0.02 0.01 68 1015.6
20260905031526 61 105 0.0 0.0 0.00 0.02 0.01 68 1015.6
20260905031016 61 117 0.0 0.0 0.00 0.02 0.01 68 1015.5
20260905030514 61 117 0.0 0.0 0.00 0.02 0.01 67 1015.5
20260905030030 61 117 0.0 0.0 0.00 0.02 0.01 67 1015.4
20260905025513 62 117 0.0 0.0 0.00 0.02 0.01 66 1015.4
20260905025013 62 117 0.0 0.0 0.00 0.02 0.01 64 1015.4
20260905024528 62 117 0.0 0.0 0.00 0.02 0.01 64 1015.3
20260905024020 62 123 0.0 0.0 0.00 0.02 0.01 64 1015.3
20260905023508 62 123 0.0 0.0 0.00 0.02 0.01 63 1015.3
20260905023037 62 121 0.0 0.0 0.00 0.02 0.01 62 1015.3
20260905022512 63 117 0.0 0.0 0.00 0.02 0.01 63 1015.4
20260905022012 63 117 0.0 1.7 0.00 0.02 0.01 62 1015.4
20260905021526 63 129 0.0 1.7 0.00 0.02 0.01 62 1015.4
20260905021011 63 223 0.0 2.6 0.00 0.03 0.01 62 1015.4
20260905020518 63 220 0.9 2.6 0.00 0.03 0.01 60 1015.4
20260905020033 63 104 0.9 3.5 0.00 0.03 0.01 60 1015.3
20260905015515 64 123 1.7 5.2 0.00 0.03 0.01 60 1015.4
20260905015019 64 136 1.7 5.2 0.00 0.04 0.01 59 1015.3
20260905014530 64 121 2.6 5.2 0.00 0.04 0.01 59 1015.4
20260905014014 64 105 1.7 5.2 0.00 0.04 0.01 58 1015.3
20260905013514 65 106 0.9 2.6 0.00 0.04 0.01 57 1015.3
20260905013029 65 93 0.9 2.6 0.00 0.04 0.01 56 1015.2
20260905012518 66 79 0.9 2.6 0.00 0.04 0.01 56 1014.9
20260905012009 66 88 0.9 1.7 0.00 0.04 0.01 55 1014.7
20260905011520 65 82 0.0 4.3 0.00 0.04 0.01 55 1014.7
20260905011014 66 122 1.7 4.3 0.00 0.04 0.01 55 1014.7
20260905010513 66 109 0.9 6.1 0.00 0.04 0.01 56 1014.6
20260905010032 66 195 1.7 6.1 0.00 0.04 0.01 55 1014.5
20260905005513 67 121 1.7 5.2 0.00 0.04 0.01 54 1014.5
20260905005013 67 104 0.9 8.7 0.00 0.04 0.01 55 1014.5
20260905004505 67 92 1.7 8.7 0.00 0.04 0.01 53 1014.5
20260905004005 67 133 0.9 3.5 0.00 0.04 0.01 53 1014.5
20260905003508 67 167 0.9 3.5 0.00 0.04 0.01 57 1014.4
20260905003008 67 178 0.9 6.1 0.00 0.04 0.01 58 1014.4
20260905002508 67 213 1.7 7.0 0.00 0.04 0.01 56 1014.3
20260905002002 68 120 4.3 7.0 0.00 0.04 0.01 55 1014.3
20260905001503 68 114 0.9 4.3 0.00 0.04 0.01 50 1014.3
20260905001000 67 311 0.0 3.5 0.00 0.04 0.01 50 1014.2
20260905000501 68 352 0.9 3.5 0.00 0.04 0.01 49 1014.2
20260905000004 68 329 0.9 2.6 0.00 0.04 0.01 49 1014.2
20260904235503 68 350 0.9 3.5 0.00 0.04 0.01 48 1014.1
20260904235003 69 269 0.9 3.5 0.00 0.04 0.01 51 1014.2
20260904234507 69 345 0.9 3.5 0.00 0.04 0.01 47 1014.1
20260904234004 68 349 0.9 3.5 0.00 0.04 0.01 49 1014.2
20260904233505 68 270 0.9 5.2 0.00 0.04 0.01 47 1014.2